Probability
3 2 2 2 2 1 0 0 0 0 0 0 0 0 0 0 0 0 0 0 0 0 1 4 6 6 6 6 6 4 4 4 4 3 3 3 2 2 4 6 5 1 0 1 3 4 4 3 3
2 2 2 2 1 0 0 0 0 0 0 0 0 0 0 0 0 0 0 0 0 0 2 5 6 6 5 6 6 4 3 4 3 2 2 2 2 2 3 5 5 2 1 1 3 3 3 3 3
3 4 4 3 1 0 0 0 0 0 0 0 0 0 0 0 0 0 0 0 0 0 2 6 6 5 5 5 4 3 3 3 2 1 1 0 1 1 1 2 3 2 1 1 2 2 3 3 3
5 7 6 2 0 0 0 0 0 0 0 0 0 0 0 0 0 0 0 0 0 1 3 5 6 6 5 4 4 4 4 4 2 1 1 1 0 0 0 1 1 1 0 1 2 2 2 2 1
8 8 5 1 0 0 0 0 0 0 0 0 0 0 0 0 0 0 0 0 0 1 3 4 5 6 5 4 4 4 5 5 3 2 2 1 0 0 0 0 0 0 0 1 2 2 1 1 0
7 6 2 0 0 0 0 0 0 0 0 0 0 0 0 0 0 0 0 0 0 1 2 4 4 4 4 4 4 4 4 4 3 3 2 1 0 0 0 0 0 0 0 0 1 1 1 0 0
5 3 1 0 0 0 0 0 0 0 0 0 0 0 0 0 0 0 0 0 0 1 3 3 3 2 2 2 2 3 3 2 2 2 2 1 1 2 1 1 1 0 0 0 0 0 0 0 0
3 2 1 0 0 0 0 0 0 0 0 0 0 0 0 0 0 0 0 0 0 1 2 2 2 2 1 1 1 1 2 2 1 2 2 2 2 3 2 2 2 1 0 0 0 0 0 0 0
3 2 1 0 0 0 0 0 0 0 0 0 0 0 0 0 0 0 0 0 0 1 1 1 1 1 0 0 0 0 1 2 2 2 3 3 3 3 2 2 1 1 0 0 0 0 0 0 0
2 1 0 0 0 0 0 0 0 0 0 0 0 0 1 1 0 0 0 0 0 0 1 2 1 0 0 0 0 0 1 1 1 2 2 3 3 3 2 2 1 1 0 0 0 0 0 0 0
1 0 0 0 0 0 0 0 0 0 0 0 0 1 2 2 1 0 0 0 0 1 3 4 3 1 1 0 0 1 2 2 1 1 1 1 2 4 5 5 4 3 1 1 1 0 0 0 0
0 0 0 0 0 0 0 0 0 0 0 0 1 2 3 2 1 0 0 0 0 1 3 4 4 3 3 2 0 1 3 2 1 0 0 0 2 4 6 7 7 6 3 2 2 1 0 0 0
0 0 0 0 0 0 0 0 0 0 0 0 1 2 2 1 0 0 0 0 0 0 1 3 4 5 6 4 2 2 3 2 0 0 0 0 1 3 5 7 8 7 4 3 3 2 1 1 1
0 0 0 0 0 0 0 0 0 0 0 0 0 1 1 0 0 0 0 0 0 1 1 2 4 7 7 6 3 3 3 1 0 0 0 0 1 2 4 4 5 5 4 3 3 3 3 2 2
0 0 0 0 0 0 0 0 0 0 0 0 0 0 0 0 0 0 0 0 0 1 2 2 4 6 7 6 5 3 2 1 0 0 0 0 1 2 3 3 3 4 3 3 3 3 3 3 3
0 0 0 0 0 0 0 0 0 0 0 0 0 0 0 0 0 0 0 0 0 1 1 3 4 6 6 6 5 2 1 0 0 0 0 0 0 1 3 3 3 3 3 3 3 3 3 3 2
0 0 0 0 0 0 0 0 0 0 0 0 0 0 0 0 0 0 0 1 1 0 1 3 5 5 5 6 5 3 1 0 0 0 0 0 0 1 2 3 3 3 3 4 4 4 4 4 3
0 0 0 0 0 0 0 0 0 0 0 0 0 0 0 0 0 0 0 1 2 2 2 3 4 5 4 4 5 3 2 1 0 0 0 0 0 0 1 3 3 4 4 5 6 5 5 4 4
0 0 0 0 0 0 0 0 0 0 0 0 0 0 0 0 1 1 1 2 3 3 3 3 4 4 3 4 5 4 2 1 0 0 1 1 1 0 1 2 4 4 5 6 6 6 5 4 4
0 0 0 0 0 0 0 0 0 0 0 0 0 0 0 1 3 4 4 3 3 3 4 4 5 5 4 5 5 4 2 1 0 0 1 1 1 0 1 2 3 4 5 6 6 5 4 3 3
1 0 1 1 0 0 0 0 0 0 0 0 0 0 0 1 4 7 7 6 5 4 4 6 8 9 8 7 5 4 3 1 1 1 1 0 0 0 1 2 3 4 5 6 6 4 3 3 3
2 2 2 2 1 0 0 0 0 0 0 0 0 0 0 1 4 7 8 8 7 5 4 7 11 13 11 9 8 6 4 2 2 1 1 1 0 1 1 2 3 5 7 8 5 4 3 3 3
3 2 2 2 1 0 0 0 0 0 0 0 0 0 0 2 4 6 7 9 8 5 4 7 11 13 12 11 10 9 6 5 3 3 4 3 2 2 2 3 4 7 8 8 6 4 3 3 4
2 1 1 1 0 0 0 0 0 0 0 0 0 0 1 2 4 5 6 8 7 5 4 6 9 11 11 10 11 10 9 8 6 5 6 7 5 4 3 4 6 8 8 8 7 7 7 7 8
2 1 0 0 0 0 0 0 0 0 0 0 0 0 1 3 4 5 6 8 9 8 6 7 10 11 10 10 10 9 9 9 9 7 7 7 6 4 4 4 6 7 7 7 9 12 13 14 15
1 0 0 0 0 0 0 0 0 0 1 1 1 1 2 4 6 6 7 9 12 12 10 11 14 14 13 11 9 8 8 8 8 7 6 6 5 4 4 5 6 7 8 9 12 16 19 20 19
0 0 0 0 0 0 0 0 0 0 1 2 3 4 4 5 7 7 7 8 11 13 12 13 17 18 16 13 11 9 9 8 7 6 6 5 6 6 7 7 8 10 13 15 18 21 23 22 21
0 0 0 0 0 0 0 0 1 1 2 3 6 8 9 9 9 9 9 9 11 13 13 15 19 20 19 17 15 14 12 10 8 6 6 7 9 11 13 13 13 16 21 24 25 26 26 25 23
0 0 0 0 0 0 0 1 2 2 3 4 6 9 12 13 13 14 14 15 16 16 16 18 21 23 23 22 21 18 15 13 11 9 8 10 12 14 16 17 19 23 27 30 30 28 28 27 24
0 0 0 0 0 0 0 1 2 3 3 4 6 10 13 15 16 18 19 21 21 18 17 20 23 25 26 27 23 19 16 16 14 11 11 12 13 15 17 19 23 26 29 31 31 28 28 27 25
Wind_Speed
13 10 6 5 5 3 11 9 7 7 7 7 7 5 6 8 7 7 5 4 3 4 5 6 7 7 8 8 10 11 11 12 12 13 13 14 15 16 16 18 18 18 19 19 19 19 18 17 17
9 6 6 5 1 7 10 8 8 9 7 6 6 6 6 8 8 7 5 4 3 4 6 7 8 8 9 10 11 11 12 12 13 14 14 14 15 16 17 17 18 18 18 18 18 18 17 16 16
7 7 5 1 7 9 10 8 8 8 6 4 5 6 6 7 6 5 6 4 4 5 6 9 8 9 11 11 11 12 13 13 13 14 14 14 15 16 16 17 18 18 17 17 17 17 16 16 15
5 6 4 3 11 11 8 7 6 7 6 5 5 7 8 7 5 6 7 5 5 6 7 10 9 10 11 11 11 12 12 13 13 14 14 14 15 16 16 17 17 16 16 17 17 16 16 15 15
6 5 2 7 11 9 7 6 4 5 6 6 5 9 9 7 7 7 7 5 6 7 7 10 9 9 10 11 11 11 12 12 13 14 14 14 14 15 16 16 15 15 15 15 15 15 14 14 14
5 3 3 8 10 7 7 5 5 7 8 7 7 9 9 7 7 7 6 5 6 7 7 8 9 9 10 10 10 11 11 11 12 12 13 14 14 14 14 14 14 14 14 14 14 13 13 12 12
4 3 6 8 8 8 6 4 4 6 7 6 5 8 9 8 7 6 6 6 6 6 6 6 7 8 9 10 10 10 10 10 11 11 12 13 14 14 13 13 13 13 13 12 12 12 11 11 10
5 1 5 7 7 8 6 5 5 5 7 7 4 6 9 10 8 7 7 6 6 6 6 6 6 6 6 8 9 9 9 10 10 10 10 12 13 13 12 12 12 12 11 11 10 10 10 9 9
6 1 7 7 7 7 6 6 6 5 8 6 5 7 11 12 9 7 7 7 6 5 5 5 6 6 5 6 8 8 8 8 8 9 9 7 8 10 9 12 11 10 10 10 9 9 9 8 10
4 4 9 7 6 7 6 5 7 6 7 7 8 10 12 11 8 7 7 7 6 5 6 5 5 5 4 4 4 4 5 5 5 5 6 5 5 5 7 11 10 9 9 9 9 7 8 7 6
1 5 6 5 5 6 6 6 5 5 6 7 9 12 12 11 8 7 6 6 6 5 5 6 5 5 4 3 3 3 3 4 5 6 5 5 4 5 5 5 7 7 7 6 8 7 3 3 3
2 3 3 4 5 5 6 6 5 3 6 7 10 12 12 10 8 7 6 6 6 5 5 5 5 4 3 3 3 3 3 3 4 5 4 4 3 3 4 3 3 3 3 3 2 2 3 2 3
2 4 4 4 4 5 5 6 5 5 7 8 11 12 11 9 8 7 6 6 6 5 5 5 4 4 4 3 1 3 3 3 4 3 3 3 3 3 3 3 2 2 3 3 3 2 2 2 2
3 4 5 5 5 5 5 6 5 7 8 10 11 11 10 9 8 7 6 6 5 5 5 6 5 5 4 4 2 2 3 3 3 3 3 2 2 2 2 3 2 2 2 1 1 2 2 1 1
4 5 6 5 5 4 4 5 5 8 9 10 10 9 9 9 8 7 6 6 6 6 6 6 6 5 5 4 3 3 3 3 3 3 3 2 2 2 2 2 2 2 2 2 2 2 1 2 2
6 6 5 6 5 5 7 3 7 9 10 10 10 9 9 8 8 7 7 6 6 6 6 6 6 6 5 4 2 2 2 3 2 2 2 3 2 2 2 2 2 2 1 2 2 1 1 1 1
8 5 3 6 6 5 6 1 8 9 9 9 10 10 9 9 9 8 8 7 6 6 6 7 6 6 5 5 3 3 2 2 2 2 2 2 2 2 2 1 2 2 2 1 1 2 0 1 1
4 4 3 3 6 6 6 3 6 9 9 9 10 10 10 9 9 9 8 7 7 7 7 7 7 6 5 4 3 2 2 2 2 2 2 2 2 2 2 2 2 2 2 2 1 1 1 1 1
5 5 3 1 3 6 6 6 6 9 10 10 10 10 10 10 9 9 8 8 7 7 7 7 7 6 5 4 4 3 3 2 2 2 3 2 2 2 2 1 2 2 1 1 2 1 2 2 1
8 8 5 3 3 5 5 6 6 9 11 10 10 11 11 10 10 10 10 9 9 8 8 8 8 7 6 4 3 2 1 1 1 1 2 2 2 2 3 2 2 2 2 2 2 2 1 1 2
10 9 6 4 4 7 7 7 7 9 10 10 11 11 11 11 12 12 11 11 10 9 9 8 8 7 7 6 4 3 3 2 3 3 3 3 3 3 2 2 2 2 2 2 2 2 2 2 2
9 6 6 6 8 5 6 5 5 7 9 11 11 12 12 12 13 13 13 12 11 11 10 9 8 8 7 7 6 5 4 3 2 2 2 3 3 3 3 3 3 3 2 2 3 2 2 3 2
6 4 6 8 9 8 6 7 3 7 8 10 11 12 12 13 13 13 13 13 12 11 10 10 9 9 8 8 7 6 5 4 3 3 3 3 3 3 3 3 3 3 2 2 2 1 3 3 3
6 6 6 9 10 9 6 8 3 4 6 7 9 11 12 13 13 13 13 12 12 11 11 10 10 10 9 9 8 8 6 5 4 4 4 4 3 3 4 4 3 4 3 3 3 3 4 3 2
11 10 8 9 9 7 4 8 4 1 3 5 7 9 10 12 13 13 14 14 13 13 12 11 11 10 10 9 9 8 7 7 6 5 5 4 4 4 4 4 4 3 3 3 3 4 3 4 3
13 14 10 8 7 5 7 7 3 1 2 4 6 7 9 10 12 13 14 14 13 13 13 12 12 11 10 10 9 8 8 6 5 6 4 4 4 3 3 4 4 4 4 4 3 3 4 3 3
12 13 12 12 11 10 6 6 5 4 5 5 6 7 8 9 11 12 13 14 14 13 13 13 12 11 10 10 9 8 8 7 6 5 5 4 4 4 4 5 4 4 4 4 4 3 3 3 4
11 10 9 11 10 11 9 8 4 5 5 6 6 7 7 8 10 10 11 12 12 12 12 12 12 11 10 10 9 8 8 7 6 6 5 4 4 4 4 5 5 4 5 5 5 4 4 4 4
11 13 12 10 10 11 9 5 2 3 4 5 6 6 6 7 9 9 9 10 10 10 11 11 11 11 10 9 9 8 8 7 7 6 6 6 5 6 6 5 5 5 5 4 4 4 4 4 4
12 13 14 12 10 11 11 5 2 2 3 4 4 5 5 5 6 8 9 9 10 10 10 11 11 11 10 9 9 8 8 7 7 7 7 6 6 6 6 5 5 5 5 5 5 5 4 4 4
Wind_Direction
171 179 205 231 230 90 67 62 62 74 67 61 57 49 51 41 28 63 68 56 55 69 78 83 59 55 68 79 86 85 86 87 89 91 93 95 97 98 100 105 108 111 113 114 115 115 115 114 115
170 182 226 240 316 77 70 61 63 61 83 94 79 71 70 64 55 84 88 74 77 74 75 70 64 65 75 83 88 87 86 85 89 92 95 96 99 99 100 104 104 109 111 112 113 115 116 115 116
179 223 259 284 51 57 69 67 75 84 91 85 82 65 56 67 76 84 87 99 93 81 80 79 70 72 79 83 84 84 85 85 89 94 96 98 100 102 102 102 103 106 109 113 113 113 115 115 115
210 223 232 65 69 61 67 80 92 99 90 77 88 86 78 64 72 90 103 107 99 92 88 86 78 78 81 81 82 82 83 88 91 93 95 98 101 103 104 104 105 106 107 107 110 112 112 113 113
242 253 120 80 72 72 74 77 83 82 79 85 88 94 89 82 93 104 107 108 98 93 92 93 88 84 82 82 82 82 83 86 91 93 94 98 101 104 107 107 108 108 108 109 109 109 111 113 115
241 252 62 75 80 81 86 95 96 86 93 98 104 102 94 110 113 109 107 106 100 100 98 99 102 92 86 86 85 85 85 86 89 93 95 100 103 105 107 108 109 111 112 112 111 112 113 113 114
292 8 62 74 87 90 85 99 92 92 99 96 104 102 114 125 118 118 114 112 104 103 104 108 114 110 102 93 88 87 88 89 91 93 98 102 104 107 108 109 109 110 111 112 114 115 116 116 117
296 297 84 80 79 84 106 112 91 94 94 105 113 106 125 134 135 126 124 120 113 109 106 106 105 105 116 112 100 95 95 97 99 99 105 115 118 118 121 118 111 113 113 113 115 118 120 120 121
261 250 70 64 69 93 119 121 109 105 115 116 97 94 118 135 140 137 132 122 115 112 113 115 117 118 118 113 114 117 116 113 123 117 121 139 126 122 127 107 113 116 118 119 120 124 132 140 141
262 51 63 56 62 97 124 123 124 141 130 124 116 112 127 141 146 145 138 132 129 129 128 125 120 117 120 112 118 116 115 115 110 102 116 111 105 107 112 120 125 125 128 132 131 141 164 187 151
20 57 72 82 81 97 122 122 134 144 126 129 135 139 148 151 154 151 143 139 136 142 138 132 127 128 126 122 121 111 110 114 117 114 117 110 120 123 124 130 140 143 148 139 144 169 167 152 122
102 84 83 96 103 113 111 117 126 106 89 117 136 145 154 160 159 155 150 148 147 150 147 136 130 131 122 109 116 129 123 121 113 117 123 120 116 116 111 118 119 134 126 125 136 135 127 140 149
134 104 108 120 127 116 124 116 113 113 111 128 138 149 159 161 158 157 155 157 157 163 161 149 147 140 138 130 130 113 111 118 116 118 119 122 128 120 112 108 115 122 123 145 146 130 132 160 161
107 119 126 135 132 142 140 124 134 124 137 142 150 158 163 163 163 159 165 172 171 170 163 158 163 154 152 149 145 126 128 122 116 123 124 137 123 117 122 134 125 124 128 112 133 128 155 164 127
161 156 151 151 157 156 173 152 145 138 152 155 161 164 165 170 173 175 177 180 176 172 164 166 170 163 163 163 164 154 149 140 135 127 134 155 149 139 153 140 147 121 122 143 154 140 165 168 163
199 205 179 154 177 178 230 131 135 153 166 166 170 172 178 181 186 184 185 185 179 172 168 175 173 162 164 168 171 158 144 131 134 137 144 155 151 161 179 148 122 124 158 164 145 170 157 137 174
209 224 192 154 185 194 229 176 141 168 179 178 180 181 185 186 194 191 190 187 182 177 176 176 175 170 170 165 168 166 146 153 156 147 151 146 163 170 188 152 120 180 174 167 192 123 184 159 182
220 234 215 191 175 211 226 219 168 181 193 191 189 189 191 193 195 191 192 187 182 178 179 179 178 177 175 174 169 167 165 174 169 158 143 158 173 167 199 172 155 195 168 170 153 140 162 222 216
268 266 252 204 170 224 236 233 201 192 202 201 196 194 196 197 190 188 190 190 184 180 180 183 183 175 182 184 189 181 179 182 170 172 164 180 187 169 205 203 158 204 169 184 189 189 170 189 179
246 252 245 199 192 243 252 247 223 204 209 210 205 201 200 196 187 187 191 191 189 185 184 184 185 182 188 181 192 192 188 190 175 181 165 192 186 195 193 192 207 177 174 183 192 199 243 203 193
238 253 263 249 206 224 255 232 216 201 208 212 214 210 204 200 193 189 192 193 192 189 189 188 186 183 190 187 189 181 179 207 191 186 178 186 190 192 207 194 214 201 219 180 198 204 220 235 221
235 242 255 249 239 228 243 265 196 195 203 209 211 209 206 202 198 193 192 192 193 191 187 187 185 186 187 190 198 202 203 205 191 197 166 175 185 195 206 214 208 225 224 184 219 181 223 236 246
243 238 233 241 250 255 231 264 191 187 210 209 206 206 205 202 198 196 195 191 192 189 185 183 184 188 189 194 195 204 210 206 192 183 169 199 185 203 212 218 217 218 226 214 245 211 240 236 255
189 197 215 233 244 243 244 261 240 198 215 210 204 202 202 199 198 197 194 189 191 188 186 183 183 188 189 195 199 204 207 208 203 193 189 203 198 199 201 210 214 220 221 211 217 218 214 243 266
209 222 222 220 225 237 214 249 258 246 209 217 209 199 196 196 195 194 191 188 189 190 189 185 183 188 190 194 200 202 206 206 206 209 201 212 205 198 194 212 216 225 217 219 213 206 224 219 228
215 234 243 250 248 230 201 242 246 184 202 220 212 196 190 191 192 193 191 189 190 191 191 187 185 190 191 193 198 201 206 212 209 211 222 212 220 210 193 207 217 222 221 219 207 216 208 210 225
218 230 251 258 260 261 232 230 227 210 210 210 204 191 188 189 187 189 187 189 189 190 190 190 187 189 191 192 192 197 203 215 217 208 219 223 218 212 203 213 220 220 219 223 217 224 223 216 226
247 236 235 245 251 254 241 233 229 214 211 199 197 193 187 187 184 183 183 186 186 186 186 189 188 189 189 190 194 191 196 203 210 216 216 223 222 218 209 213 219 219 214 212 218 220 216 225 229
210 220 233 245 253 259 255 236 185 220 217 211 200 196 190 186 180 178 178 177 176 179 180 183 183 185 187 190 191 194 195 199 205 211 214 214 215 210 211 214 216 217 216 212 214 230 223 228 233
233 231 227 234 237 250 265 250 127 198 207 210 207 186 182 179 174 172 170 170 174 178 179 179 181 184 186 186 186 191 195 200 206 208 212 211 211 212 211 213 216 219 216 213 215 225 225 228 233